Time,TemperatureF,DewpointF,PressureIn,WindDirection,WindDirectionDegrees,WindSpeedMPH,WindSpeedGustMPH,Humidity,HourlyPrecipIn,Conditions,Clouds,dailyrainin,SoftwareType,DateUTC
2013-04-21 00:14:00,61.9,56.0,29.93,SE,124,0.0,3.0,82,0.00,,,0.00,weatherlink.com 1.10,2013-04-21 07:14:00,
2013-04-21 00:29:00,61.6,56.0,29.93,SE,124,0.0,1.0,82,0.00,,,0.00,weatherlink.com 1.10,2013-04-21 07:29:00,
2013-04-21 00:44:00,60.7,56.0,29.93,SE,125,0.0,0.0,83,0.00,,,0.00,weatherlink.com 1.10,2013-04-21 07:44:00,
2013-04-21 00:59:00,59.9,55.0,29.93,SE,124,0.0,0.0,83,0.00,,,0.00,weatherlink.com 1.10,2013-04-21 07:59:00,
2013-04-21 01:14:00,59.6,55.0,29.93,SE,125,0.0,0.0,84,0.00,,,0.00,weatherlink.com 1.10,2013-04-21 08:14:00,
2013-04-21 01:29:00,59.5,55.0,29.93,SE,125,0.0,0.0,86,0.00,,,0.00,weatherlink.com 1.10,2013-04-21 08:29:00,
2013-04-21 01:44:00,59.3,55.0,29.93,SE,124,0.0,0.0,86,0.00,,,0.00,weatherlink.com 1.10,2013-04-21 08:44:00,
2013-04-21 01:59:00,59.5,56.0,29.92,SE,125,0.0,0.0,88,0.00,,,0.00,weatherlink.com 1.10,2013-04-21 08:59:00,
2013-04-21 02:14:00,59.9,56.0,29.92,South,176,0.0,2.0,88,0.00,,,0.00,weatherlink.com 1.10,2013-04-21 09:14:00,
2013-04-21 02:29:00,60.1,57.0,29.92,SW,224,0.0,1.0,88,0.00,,,0.00,weatherlink.com 1.10,2013-04-21 09:29:00,
2013-04-21 02:44:00,60.1,57.0,29.92,SW,233,0.0,2.0,89,0.00,,,0.00,weatherlink.com 1.10,2013-04-21 09:44:00,
2013-04-21 02:59:00,60.0,57.0,29.91,SW,228,0.0,2.0,89,0.00,,,0.00,weatherlink.com 1.10,2013-04-21 09:59:00,
2013-04-21 03:14:00,60.0,57.0,29.91,SE,144,2.0,3.0,89,0.00,,,0.00,weatherlink.com 1.10,2013-04-21 10:14:00,
2013-04-21 03:29:00,59.9,57.0,29.91,SW,219,2.0,3.0,89,0.00,,,0.00,weatherlink.com 1.10,2013-04-21 10:29:00,
2013-04-21 03:44:00,59.8,57.0,29.91,South,176,1.0,3.0,90,0.00,,,0.00,weatherlink.com 1.10,2013-04-21 10:44:00,
2013-04-21 03:59:00,59.7,57.0,29.91,SSW,200,1.0,4.0,90,0.00,,,0.00,weatherlink.com 1.10,2013-04-21 10:59:00,
2013-04-21 04:14:00,59.4,57.0,29.92,ESE,109,0.0,3.0,90,0.00,,,0.00,weatherlink.com 1.10,2013-04-21 11:14:00,
2013-04-21 04:29:00,59.3,56.0,29.92,SSE,158,2.0,2.0,90,0.00,,,0.00,weatherlink.com 1.10,2013-04-21 11:29:00,
2013-04-21 04:44:00,59.0,56.0,29.92,SSW,205,1.0,3.0,90,0.00,,,0.00,weatherlink.com 1.10,2013-04-21 11:44:00,
2013-04-21 04:59:00,58.9,56.0,29.92,WSW,240,0.0,2.0,90,0.00,,,0.00,weatherlink.com 1.10,2013-04-21 11:59:00,
2013-04-21 05:14:00,58.9,56.0,29.91,West,273,0.0,2.0,90,0.00,,,0.00,weatherlink.com 1.10,2013-04-21 12:14:00,
2013-04-21 05:29:00,58.8,56.0,29.92,WSW,240,0.0,1.0,90,0.00,,,0.00,weatherlink.com 1.10,2013-04-21 12:29:00,
2013-04-21 05:44:00,58.5,56.0,29.92,SE,139,0.0,2.0,90,0.00,,,0.00,weatherlink.com 1.10,2013-04-21 12:44:00,
2013-04-21 05:59:00,58.6,56.0,29.93,SSE,156,0.0,1.0,90,0.00,,,0.00,weatherlink.com 1.10,2013-04-21 12:59:00,
2013-04-21 06:14:00,58.3,56.0,29.93,ESE,122,0.0,2.0,90,0.00,,,0.00,weatherlink.com 1.10,2013-04-21 13:14:00,
2013-04-21 06:29:00,58.2,55.0,29.93,East,94,0.0,2.0,90,0.00,,,0.00,weatherlink.com 1.10,2013-04-21 13:29:00,
2013-04-21 06:44:00,58.1,56.0,29.94,East,94,0.0,1.0,91,0.00,,,0.00,weatherlink.com 1.10,2013-04-21 13:44:00,
2013-04-21 06:59:00,58.0,55.0,29.94,East,90,0.0,1.0,91,0.00,,,0.00,weatherlink.com 1.10,2013-04-21 13:59:00,
2013-04-21 07:14:00,58.2,56.0,29.95,East,90,0.0,0.0,91,0.00,,,0.00,weatherlink.com 1.10,2013-04-21 14:14:00,
2013-04-21 07:29:00,58.2,56.0,29.95,East,90,0.0,1.0,91,0.00,,,0.00,weatherlink.com 1.10,2013-04-21 14:29:00,
2013-04-21 07:44:00,58.6,56.0,29.95,ESE,104,0.0,1.0,91,0.00,,,0.00,weatherlink.com 1.10,2013-04-21 14:44:00,
2013-04-21 07:59:00,59.1,57.0,29.95,SE,131,0.0,1.0,91,0.00,,,0.00,weatherlink.com 1.10,2013-04-21 14:59:00,
2013-04-21 08:14:00,59.7,57.0,29.96,NW,311,1.0,4.0,90,0.00,,,0.00,weatherlink.com 1.10,2013-04-21 15:14:00,
2013-04-21 08:29:00,60.1,57.0,29.96,NW,312,0.0,1.0,90,0.00,,,0.00,weatherlink.com 1.10,2013-04-21 15:29:00,
2013-04-21 08:44:00,60.5,57.0,29.95,NW,325,1.0,2.0,89,0.00,,,0.00,weatherlink.com 1.10,2013-04-21 15:44:00,
2013-04-21 09:00:00,62.6,59.0,29.96,SSE,158,1.0,2.0,87,0.00,,,0.00,weatherlink.com 1.10,2013-04-21 16:00:00,
2013-04-21 09:15:00,65.5,58.0,29.96,SSW,203,0.0,2.0,78,0.00,,,0.00,weatherlink.com 1.10,2013-04-21 16:15:00,
2013-04-21 09:30:00,68.0,59.0,29.96,SSW,196,2.0,5.0,72,0.00,,,0.00,weatherlink.com 1.10,2013-04-21 16:30:00,
2013-04-21 09:45:00,68.1,58.0,29.97,SW,222,7.0,7.0,71,0.00,,,0.00,weatherlink.com 1.10,2013-04-21 16:45:00,
2013-04-21 10:00:00,67.4,58.0,29.97,WSW,250,0.0,6.0,72,0.00,,,0.00,weatherlink.com 1.10,2013-04-21 17:00:00,
2013-04-21 10:15:00,67.0,57.0,29.97,West,259,2.0,7.0,71,0.00,,,0.00,weatherlink.com 1.10,2013-04-21 17:15:00,
2013-04-21 10:30:00,67.3,58.0,29.97,SW,233,5.0,7.0,71,0.00,,,0.00,weatherlink.com 1.10,2013-04-21 17:30:00,
2013-04-21 10:45:00,67.4,57.0,29.98,SW,214,3.0,7.0,70,0.00,,,0.00,weatherlink.com 1.10,2013-04-21 17:45:00,
2013-04-21 11:00:00,68.0,56.0,29.97,SW,219,2.0,8.0,66,0.00,,,0.00,weatherlink.com 1.10,2013-04-21 18:00:00,
2013-04-21 11:15:00,68.8,56.0,29.97,South,173,2.0,7.0,65,0.00,,,0.00,weatherlink.com 1.10,2013-04-21 18:15:00,
2013-04-21 11:30:00,68.7,56.0,29.97,SSE,148,3.0,9.0,65,0.00,,,0.00,weatherlink.com 1.10,2013-04-21 18:30:00,
2013-04-21 11:45:00,69.0,57.0,29.97,SE,127,2.0,7.0,65,0.00,,,0.00,weatherlink.com 1.10,2013-04-21 18:45:00,
2013-04-21 12:00:00,69.9,57.0,29.96,WSW,256,2.0,6.0,63,0.00,,,0.00,weatherlink.com 1.10,2013-04-21 19:00:00,
2013-04-21 12:15:00,70.7,56.0,29.96,SSW,207,3.0,6.0,61,0.00,,,0.00,weatherlink.com 1.10,2013-04-21 19:15:00,
2013-04-21 12:30:00,70.7,57.0,29.96,SW,218,2.0,10.0,62,0.00,,,0.00,weatherlink.com 1.10,2013-04-21 19:30:00,
2013-04-21 12:45:00,70.2,56.0,29.96,SE,135,2.0,9.0,62,0.00,,,0.00,weatherlink.com 1.10,2013-04-21 19:45:00,
2013-04-21 13:00:00,70.9,57.0,29.95,WSW,238,5.0,7.0,62,0.00,,,0.00,weatherlink.com 1.10,2013-04-21 20:00:00,
2013-04-21 13:15:00,71.9,55.0,29.95,South,173,3.0,7.0,56,0.00,,,0.00,weatherlink.com 1.10,2013-04-21 20:15:00,
2013-04-21 13:30:00,71.6,55.0,29.95,SSE,148,5.0,7.0,56,0.00,,,0.00,weatherlink.com 1.10,2013-04-21 20:30:00,
2013-04-21 13:45:00,72.0,55.0,29.94,SW,231,3.0,7.0,56,0.00,,,0.00,weatherlink.com 1.10,2013-04-21 20:45:00,
2013-04-21 14:00:00,73.0,56.0,29.94,South,169,3.0,7.0,55,0.00,,,0.00,weatherlink.com 1.10,2013-04-21 21:00:00,
2013-04-21 14:15:00,73.3,55.0,29.94,SW,230,4.0,8.0,53,0.00,,,0.00,weatherlink.com 1.10,2013-04-21 21:15:00,
2013-04-21 14:30:00,74.4,51.0,29.93,ESE,121,6.0,9.0,44,0.00,,,0.00,weatherlink.com 1.10,2013-04-21 21:30:00,
2013-04-21 14:45:00,73.4,54.0,29.93,SE,137,4.0,8.0,51,0.00,,,0.00,weatherlink.com 1.10,2013-04-21 21:45:00,
2013-04-21 15:00:00,73.0,54.0,29.93,SSW,207,6.0,9.0,52,0.00,,,0.00,weatherlink.com 1.10,2013-04-21 22:00:00,
2013-04-21 15:15:00,72.6,54.0,29.93,SE,141,6.0,7.0,53,0.00,,,0.00,weatherlink.com 1.10,2013-04-21 22:15:00,
2013-04-21 15:30:00,71.4,54.0,29.92,SW,214,3.0,9.0,55,0.00,,,0.00,weatherlink.com 1.10,2013-04-21 22:30:00,
2013-04-21 15:45:00,71.0,54.0,29.91,SSW,211,0.0,10.0,56,0.00,,,0.00,weatherlink.com 1.10,2013-04-21 22:45:00,
2013-04-21 16:00:00,71.8,56.0,29.91,WSW,240,4.0,8.0,57,0.00,,,0.00,weatherlink.com 1.10,2013-04-21 23:00:00,
2013-04-21 16:15:00,70.7,54.0,29.91,ESE,122,4.0,9.0,56,0.00,,,0.00,weatherlink.com 1.10,2013-04-21 23:15:00,
2013-04-21 16:30:00,70.7,56.0,29.91,SE,145,5.0,8.0,59,0.00,,,0.00,weatherlink.com 1.10,2013-04-21 23:30:00,
2013-04-21 16:45:00,70.0,56.0,29.91,WSW,240,5.0,11.0,61,0.00,,,0.00,weatherlink.com 1.10,2013-04-21 23:45:00,
2013-04-21 17:00:00,69.2,56.0,29.91,WSW,256,4.0,10.0,63,0.00,,,0.00,weatherlink.com 1.10,2013-04-22 00:00:00,
2013-04-21 17:15:00,68.9,57.0,29.91,WSW,243,2.0,10.0,65,0.00,,,0.00,weatherlink.com 1.10,2013-04-22 00:15:00,
2013-04-21 17:30:00,68.3,56.0,29.91,SSE,148,4.0,9.0,66,0.00,,,0.00,weatherlink.com 1.10,2013-04-22 00:30:00,
2013-04-21 17:45:00,67.2,56.0,29.91,SW,217,5.0,9.0,68,0.00,,,0.00,weatherlink.com 1.10,2013-04-22 00:45:00,
2013-04-21 18:00:00,66.7,57.0,29.92,SW,219,1.0,10.0,70,0.00,,,0.00,weatherlink.com 1.10,2013-04-22 01:00:00,
2013-04-21 18:15:00,66.5,57.0,29.92,West,276,2.0,7.0,71,0.00,,,0.00,weatherlink.com 1.10,2013-04-22 01:15:00,
2013-04-21 18:30:00,65.5,57.0,29.92,SW,223,3.0,8.0,74,0.00,,,0.00,weatherlink.com 1.10,2013-04-22 01:30:00,
2013-04-21 18:45:00,65.1,57.0,29.92,SW,219,3.0,6.0,75,0.00,,,0.00,weatherlink.com 1.10,2013-04-22 01:45:00,
2013-04-21 19:00:00,64.1,57.0,29.92,SW,227,2.0,8.0,77,0.00,,,0.00,weatherlink.com 1.10,2013-04-22 02:00:00,
2013-04-21 19:15:00,62.8,56.0,29.93,SE,143,3.0,7.0,79,0.00,,,0.00,weatherlink.com 1.10,2013-04-22 02:15:00,
2013-04-21 19:30:00,62.0,56.0,29.93,South,174,2.0,6.0,81,0.00,,,0.00,weatherlink.com 1.10,2013-04-22 02:30:00,
2013-04-21 19:45:00,61.6,56.0,29.94,SSW,205,3.0,7.0,82,0.00,,,0.00,weatherlink.com 1.10,2013-04-22 02:45:00,
2013-04-21 20:00:00,61.2,56.0,29.94,SSW,198,1.0,8.0,82,0.00,,,0.00,weatherlink.com 1.10,2013-04-22 03:00:00,
2013-04-21 20:15:00,61.0,56.0,29.95,SW,215,2.0,4.0,83,0.00,,,0.00,weatherlink.com 1.10,2013-04-22 03:15:00,
2013-04-21 20:30:00,60.8,56.0,29.96,SW,224,1.0,6.0,83,0.00,,,0.00,weatherlink.com 1.10,2013-04-22 03:30:00,
2013-04-21 20:45:00,60.8,56.0,29.96,SW,233,1.0,5.0,83,0.00,,,0.00,weatherlink.com 1.10,2013-04-22 03:45:00,
2013-04-21 21:00:00,60.9,56.0,29.97,SW,222,4.0,5.0,83,0.00,,,0.00,weatherlink.com 1.10,2013-04-22 04:00:00,
2013-04-21 21:15:00,60.7,56.0,29.97,SW,228,2.0,5.0,83,0.00,,,0.00,weatherlink.com 1.10,2013-04-22 04:15:00,
2013-04-21 21:30:00,60.4,55.0,29.98,SW,227,2.0,4.0,82,0.00,,,0.00,weatherlink.com 1.10,2013-04-22 04:30:00,
2013-04-21 21:45:00,60.2,55.0,29.98,SSE,151,1.0,4.0,82,0.00,,,0.00,weatherlink.com 1.10,2013-04-22 04:45:00,
2013-04-21 22:00:00,60.2,55.0,29.98,WSW,240,2.0,6.0,82,0.00,,,0.00,weatherlink.com 1.10,2013-04-22 05:00:00,
2013-04-21 22:15:00,59.8,54.0,29.98,SSE,167,1.0,2.0,82,0.00,,,0.00,weatherlink.com 1.10,2013-04-22 05:15:00,
2013-04-21 22:30:00,59.8,54.0,29.98,SSW,210,2.0,4.0,82,0.00,,,0.00,weatherlink.com 1.10,2013-04-22 05:30:00,
2013-04-21 22:45:00,60.0,55.0,29.98,SE,143,3.0,5.0,82,0.00,,,0.00,weatherlink.com 1.10,2013-04-22 05:45:00,
2013-04-21 23:00:00,59.9,54.0,29.98,WSW,248,2.0,4.0,82,0.00,,,0.00,weatherlink.com 1.10,2013-04-22 06:00:00,
2013-04-21 23:15:00,60.1,55.0,29.98,South,176,1.0,4.0,82,0.00,,,0.00,weatherlink.com 1.10,2013-04-22 06:15:00,
2013-04-21 23:30:00,60.1,55.0,29.98,SSW,205,0.0,4.0,82,0.00,,,0.00,weatherlink.com 1.10,2013-04-22 06:30:00,
2013-04-21 23:45:00,60.0,55.0,29.98,SE,136,5.0,5.0,82,0.00,,,0.00,weatherlink.com 1.10,2013-04-22 06:45:00,